CST,Max TemperatureF,Mean TemperatureF,Min TemperatureF,Max Dew PointF,MeanDew PointF,Min DewpointF,Max Humidity, Mean Humidity, Min Humidity, Max Sea Level PressureIn, Mean Sea Level PressureIn, Min Sea Level PressureIn, Max VisibilityMiles, Mean VisibilityMiles, Min VisibilityMiles, Max Wind SpeedMPH, Mean Wind SpeedMPH, Max Gust SpeedMPH,PrecipitationIn, CloudCover, Events, WindDirDegrees
2012-11-1,42,34,30,33,26,18,86,65,41,30.08,29.96,29.86,10,10,10,7,3,,0.00,8,Rain,345
2012-11-2,41,28,16,24,21,12,92,73,47,30.23,30.16,30.04,10,10,10,7,1,,0.00,1,,35
2012-11-3,41,34,28,25,23,21,78,70,53,30.30,30.28,30.25,10,10,10,7,3,,0.00,6,,57
2012-11-4,43,34,25,25,23,21,88,71,47,30.31,30.27,30.22,10,10,10,8,3,,0.00,1,,65
2012-11-5,44,34,24,28,25,21,88,65,49,30.29,30.16,29.98,10,10,10,9,4,,0.00,4,,151
2012-11-6,39,36,33,36,33,27,100,91,62,29.96,29.82,29.73,10,4,0,9,4,,0.23,8,Fog-Rain-Snow,174
2012-11-7,39,37,35,36,35,33,100,92,83,30.12,30.07,29.99,10,7,0,4,1,,0.00,8,Fog,233
2012-11-8,51,40,28,35,31,25,92,76,52,30.09,30.02,29.93,10,10,9,12,4,20,0.03,1,Rain,192
2012-11-9,44,36,28,37,35,26,93,82,71,30.16,30.10,30.06,10,10,9,13,6,21,0.00,7,,53
2012-11-10,57,46,37,53,41,32,93,88,77,30.07,29.76,29.54,10,6,2,15,9,23,0.17,7,Rain-Thunderstorm,111
2012-11-11,60,42,23,53,37,14,93,85,68,29.88,29.67,29.54,10,9,2,14,7,25,0.09,8,Rain,244
2012-11-12,24,22,19,18,14,10,86,73,65,30.28,29.97,29.84,10,6,1,10,7,20,0.00,8,Snow,242
2012-11-13,35,26,17,23,17,13,86,66,48,30.40,30.35,30.30,10,10,10,8,5,,0.00,4,,192
2012-11-14,45,38,30,30,27,23,88,69,53,30.34,30.27,30.20,10,10,8,8,4,,0.00,4,Snow,172
2012-11-15,50,34,18,31,24,11,85,64,40,30.49,30.28,30.16,10,10,10,7,2,,0.00,1,,207
2012-11-16,41,26,12,29,18,8,88,70,45,30.55,30.48,30.40,10,10,9,7,1,,0.00,0,,165
2012-11-17,53,42,30,36,32,28,92,71,48,30.40,30.34,30.29,10,8,4,12,6,17,0.00,2,,163
2012-11-18,54,48,42,32,30,29,65,53,40,30.28,30.20,30.13,10,10,8,12,8,17,0.00,3,,169
2012-11-19,54,44,30,38,34,28,92,64,50,30.15,30.10,30.05,10,10,7,9,5,,0.00,5,,177
2012-11-20,43,34,23,35,27,20,96,89,73,30.19,30.13,30.09,10,3,0,0,0,,0.00,2,Fog,-1
2012-11-21,57,39,21,42,34,20,92,74,53,30.10,29.94,29.74,10,9,6,13,3,28,0.00,0,,180
2012-11-22,59,42,24,41,30,19,93,76,49,29.80,29.71,29.58,10,5,0,14,9,29,0.10,5,Fog-Snow,255
2012-11-23,24,20,17,20,16,10,88,80,68,30.34,30.03,29.77,10,4,1,12,7,26,0.09,8,Snow,286
2012-11-24,24,19,14,20,14,9,93,78,65,30.33,30.03,29.80,10,6,1,8,3,,0.10,8,Snow,184
2012-11-25,25,22,19,20,17,12,84,76,68,30.14,29.94,29.80,10,9,2,8,2,21,0.00,8,Snow,282
2012-11-26,17,10,3,9,3,-2,84,74,56,30.42,30.31,30.10,10,10,6,7,3,,0.00,3,,268
2012-11-27,27,21,15,19,15,7,86,72,58,30.34,30.17,30.06,10,8,0,8,4,17,0.01,8,Snow,211
2012-11-28,27,23,19,20,15,11,81,70,64,30.35,30.24,30.15,10,10,10,7,3,,0.00,5,,236
2012-11-29,30,21,12,25,19,8,92,82,75,30.25,30.19,30.13,10,8,6,12,3,16,0.00,5,,58
2012-11-30,32,29,26,27,22,19,82,78,72,30.29,30.22,30.15,10,10,9,10,7,,0.00,8,,103